| time (UTC) | temp F | wind direction | speed knots | gust knots | rain 1hr in | rain 24hr in | rain mn in | humidity % | barometer mb |
| 20260510065536 | 75 | 0 | 0.0 | 0.0 | 0.00 | 0.01 | 0.00 | 92 | 1014.2 |
| 20260510065006 | 75 | 0 | 0.0 | 0.0 | 0.00 | 0.01 | 0.00 | 92 | 1014.2 |
| 20260510064436 | 75 | 107 | 0.0 | 2.6 | 0.00 | 0.01 | 0.00 | 92 | 1014.4 |
| 20260510063936 | 75 | 102 | 0.9 | 2.6 | 0.00 | 0.01 | 0.00 | 92 | 1014.4 |
| 20260510063225 | 76 | 104 | 1.7 | 3.5 | 0.00 | 0.01 | 0.00 | 91 | 1014.4 |
| 20260510062336 | 76 | 104 | 1.7 | 3.5 | 0.00 | 0.01 | 0.00 | 91 | 1014.4 |
| 20260510061306 | 76 | 106 | 1.7 | 3.5 | 0.00 | 0.01 | 0.00 | 91 | 1014.5 |
| 20260510055236 | 76 | 106 | 0.9 | 2.6 | 0.00 | 0.01 | 0.00 | 90 | 1014.8 |
| 20260510055133 | 76 | 110 | 0.9 | 2.6 | 0.00 | 0.01 | 0.00 | 90 | 1014.8 |
| 20260510054707 | 76 | 110 | 0.9 | 2.6 | 0.00 | 0.01 | 0.00 | 90 | 1014.8 |
| 20260510054231 | 76 | 109 | 0.9 | 3.5 | 0.00 | 0.01 | 0.00 | 89 | 1014.9 |
| 20260510054136 | 76 | 109 | 0.9 | 3.5 | 0.00 | 0.01 | 0.00 | 89 | 1014.9 |
| 20260510053636 | 76 | 105 | 1.7 | 3.5 | 0.00 | 0.01 | 0.00 | 90 | 1014.9 |
| 20260510053411 | 76 | 103 | 2.6 | 3.5 | 0.00 | 0.01 | 0.00 | 90 | 1014.9 |
| 20260510053141 | 76 | 103 | 2.6 | 3.5 | 0.00 | 0.01 | 0.00 | 90 | 1014.9 |
| 20260510053106 | 76 | 103 | 2.6 | 3.5 | 0.00 | 0.01 | 0.00 | 90 | 1014.9 |
| 20260510052653 | 76 | 97 | 3.5 | 6.1 | 0.00 | 0.01 | 0.00 | 89 | 1014.8 |
| 20260510052606 | 76 | 97 | 3.5 | 6.1 | 0.00 | 0.01 | 0.00 | 89 | 1014.8 |
| 20260510052036 | 76 | 92 | 2.6 | 6.1 | 0.00 | 0.01 | 0.00 | 89 | 1014.9 |
| 20260510051506 | 76 | 96 | 3.5 | 7.0 | 0.00 | 0.01 | 0.00 | 89 | 1015.0 |
| 20260510051006 | 77 | 102 | 3.5 | 7.0 | 0.00 | 0.01 | 0.00 | 89 | 1015.1 |
| 20260510050506 | 77 | 105 | 2.6 | 5.2 | 0.00 | 0.01 | 0.00 | 89 | 1015.2 |
| 20260510044936 | 77 | 105 | 3.5 | 6.1 | 0.00 | 0.01 | 0.00 | 88 | 1015.4 |
| 20260510043907 | 77 | 98 | 3.5 | 7.0 | 0.00 | 0.01 | 0.00 | 88 | 1015.2 |
| 20260510043406 | 77 | 94 | 2.6 | 6.1 | 0.00 | 0.01 | 0.00 | 88 | 1015.4 |
| 20260510042336 | 77 | 96 | 1.7 | 3.5 | 0.00 | 0.01 | 0.00 | 88 | 1015.3 |
| 20260510041806 | 78 | 95 | 1.7 | 5.2 | 0.00 | 0.01 | 0.00 | 87 | 1015.3 |
| 20260510040810 | 78 | 93 | 1.7 | 6.1 | 0.00 | 0.01 | 0.00 | 87 | 1015.2 |
| 20260510040736 | 78 | 93 | 1.7 | 6.1 | 0.00 | 0.01 | 0.00 | 87 | 1015.2 |
| 20260510040236 | 78 | 93 | 1.7 | 3.5 | 0.00 | 0.01 | 0.00 | 87 | 1015.3 |
| 20260510035706 | 78 | 94 | 1.7 | 3.5 | 0.00 | 0.01 | 0.01 | 87 | 1015.4 |
| 20260510035136 | 78 | 83 | 1.7 | 3.5 | 0.00 | 0.01 | 0.01 | 87 | 1015.3 |
| 20260510034636 | 78 | 77 | 1.7 | 4.3 | 0.00 | 0.01 | 0.01 | 87 | 1015.3 |
| 20260510034136 | 78 | 87 | 1.7 | 6.1 | 0.00 | 0.01 | 0.01 | 87 | 1015.5 |
| 20260510033636 | 78 | 95 | 2.6 | 6.1 | 0.00 | 0.01 | 0.01 | 86 | 1015.4 |
| 20260510033136 | 78 | 92 | 2.6 | 6.1 | 0.00 | 0.01 | 0.01 | 86 | 1015.4 |
| 20260510032636 | 78 | 87 | 2.6 | 6.1 | 0.00 | 0.01 | 0.01 | 86 | 1015.4 |
| 20260510031606 | 79 | 87 | 2.6 | 7.0 | 0.00 | 0.01 | 0.01 | 85 | 1015.2 |
| 20260510031036 | 79 | 83 | 1.7 | 6.1 | 0.00 | 0.01 | 0.01 | 85 | 1015.3 |
| 20260510030536 | 79 | 64 | 0.9 | 1.7 | 0.00 | 0.01 | 0.01 | 84 | 1015.3 |
| 20260510030036 | 79 | 51 | 0.9 | 1.7 | 0.00 | 0.01 | 0.01 | 84 | 1015.2 |
| 20260510025506 | 79 | 53 | 0.9 | 1.7 | 0.00 | 0.01 | 0.01 | 84 | 1015.3 |
| 20260510025006 | 79 | 64 | 0.9 | 1.7 | 0.00 | 0.01 | 0.01 | 84 | 1015.2 |
| 20260510024436 | 79 | 67 | 0.9 | 2.6 | 0.00 | 0.01 | 0.01 | 83 | 1015.1 |
| 20260510023936 | 79 | 55 | 0.9 | 2.6 | 0.00 | 0.01 | 0.01 | 83 | 1015.1 |
| 20260510023406 | 80 | 45 | 0.9 | 1.7 | 0.00 | 0.01 | 0.01 | 83 | 1015.0 |
| 20260510022906 | 80 | 42 | 0.9 | 1.7 | 0.00 | 0.01 | 0.01 | 82 | 1015.0 |
| 20260510022406 | 80 | 53 | 0.9 | 1.7 | 0.00 | 0.01 | 0.01 | 83 | 1014.9 |
| 20260510021906 | 80 | 54 | 0.9 | 1.7 | 0.00 | 0.01 | 0.01 | 82 | 1015.0 |
| 20260510021336 | 80 | 41 | 0.9 | 2.6 | 0.00 | 0.01 | 0.01 | 82 | 1014.9 |
| 20260510020836 | 80 | 41 | 0.9 | 2.6 | 0.00 | 0.01 | 0.01 | 81 | 1014.8 |
| 20260510020306 | 80 | 40 | 0.9 | 2.6 | 0.00 | 0.01 | 0.01 | 81 | 1014.9 |
| 20260510015806 | 81 | 37 | 1.7 | 2.6 | 0.00 | 0.01 | 0.01 | 80 | 1014.8 |
| 20260510014736 | 81 | 30 | 1.7 | 3.5 | 0.00 | 0.01 | 0.01 | 80 | 1014.7 |
| 20260510014236 | 81 | 33 | 1.7 | 3.5 | 0.00 | 0.01 | 0.01 | 79 | 1014.6 |
| 20260510013736 | 82 | 47 | 1.7 | 3.5 | 0.00 | 0.01 | 0.01 | 79 | 1014.5 |
| 20260510013236 | 82 | 42 | 1.7 | 3.5 | 0.00 | 0.01 | 0.01 | 79 | 1014.3 |
| 20260510012706 | 82 | 38 | 2.6 | 3.5 | 0.00 | 0.01 | 0.01 | 78 | 1014.3 |
| 20260510012136 | 83 | 41 | 1.7 | 3.5 | 0.00 | 0.01 | 0.01 | 76 | 1014.2 |
| 20260510011636 | 84 | 37 | 1.7 | 3.5 | 0.00 | 0.01 | 0.01 | 74 | 1014.1 |
| 20260510011136 | 84 | 15 | 1.7 | 3.5 | 0.00 | 0.01 | 0.01 | 69 | 1014.0 |
| 20260510010636 | 84 | 328 | 0.9 | 2.6 | 0.00 | 0.01 | 0.01 | 63 | 1013.9 |
| 20260510010106 | 84 | 312 | 0.9 | 2.6 | 0.00 | 0.01 | 0.01 | 62 | 1013.6 |
| 20260510005536 | 85 | 312 | 1.7 | 2.6 | 0.00 | 0.01 | 0.01 | 61 | 1013.5 |
| 20260510005006 | 85 | 312 | 0.9 | 2.6 | 0.00 | 0.01 | 0.01 | 61 | 1013.4 |
| 20260510003936 | 85 | 308 | 0.9 | 1.7 | 0.00 | 0.01 | 0.01 | 60 | 1013.2 |
| 20260510003436 | 85 | 301 | 0.9 | 1.7 | 0.00 | 0.01 | 0.01 | 60 | 1013.1 |
| 20260510002936 | 85 | 299 | 0.9 | 2.6 | 0.00 | 0.01 | 0.01 | 60 | 1013.1 |
| 20260510002436 | 85 | 305 | 0.9 | 2.6 | 0.00 | 0.01 | 0.01 | 59 | 1013.1 |
| 20260510001936 | 86 | 309 | 1.7 | 2.6 | 0.00 | 0.01 | 0.01 | 59 | 1013.0 |
| 20260510001436 | 86 | 307 | 1.7 | 3.5 | 0.00 | 0.01 | 0.01 | 59 | 1012.9 |
| 20260510000906 | 86 | 305 | 1.7 | 3.5 | 0.00 | 0.01 | 0.01 | 59 | 1012.8 |
| 20260510000336 | 86 | 298 | 1.7 | 3.5 | 0.00 | 0.01 | 0.01 | 58 | 1012.6 |
| 20260509235836 | 86 | 297 | 1.7 | 3.5 | 0.00 | 0.01 | 0.01 | 58 | 1012.6 |
| 20260509234236 | 87 | 292 | 1.7 | 6.1 | 0.00 | 0.01 | 0.01 | 59 | 1012.4 |
| 20260509233706 | 87 | 293 | 1.7 | 6.1 | 0.00 | 0.01 | 0.01 | 60 | 1012.4 |
| 20260509233206 | 88 | 294 | 2.6 | 6.1 | 0.00 | 0.01 | 0.01 | 60 | 1012.3 |
| 20260509232706 | 88 | 291 | 2.6 | 6.1 | 0.00 | 0.01 | 0.01 | 60 | 1012.1 |
| 20260509232206 | 88 | 288 | 2.6 | 6.1 | 0.00 | 0.01 | 0.01 | 60 | 1012.1 |
| 20260509231636 | 88 | 278 | 3.5 | 8.7 | 0.00 | 0.01 | 0.01 | 59 | 1012.1 |
| 20260509230606 | 89 | 277 | 3.5 | 8.7 | 0.00 | 0.01 | 0.01 | 58 | 1012.0 |
| 20260509230106 | 89 | 276 | 3.5 | 8.7 | 0.00 | 0.01 | 0.01 | 57 | 1011.9 |
| 20260509225606 | 89 | 288 | 2.6 | 7.0 | 0.00 | 0.01 | 0.01 | 57 | 1011.8 |
| 20260509225036 | 90 | 300 | 2.6 | 7.0 | 0.00 | 0.01 | 0.01 | 56 | 1011.8 |
| 20260509224036 | 90 | 269 | 3.5 | 7.8 | 0.00 | 0.01 | 0.01 | 56 | 1011.6 |
| 20260509223006 | 90 | 290 | 3.5 | 7.0 | 0.00 | 0.01 | 0.01 | 56 | 1011.6 |
| 20260509222436 | 91 | 288 | 3.5 | 7.0 | 0.00 | 0.01 | 0.01 | 55 | 1011.6 |
| 20260509221906 | 91 | 278 | 2.6 | 7.8 | 0.00 | 0.01 | 0.01 | 56 | 1011.6 |
| 20260509221406 | 91 | 270 | 2.6 | 7.8 | 0.00 | 0.01 | 0.01 | 56 | 1011.6 |
| 20260509220906 | 91 | 274 | 3.5 | 9.6 | 0.00 | 0.01 | 0.01 | 56 | 1011.5 |
| 20260509220406 | 91 | 287 | 3.5 | 9.6 | 0.00 | 0.01 | 0.01 | 56 | 1011.5 |
| 20260509215836 | 92 | 292 | 3.5 | 7.0 | 0.00 | 0.01 | 0.01 | 56 | 1011.5 |
| 20260509215336 | 91 | 284 | 3.5 | 6.1 | 0.00 | 0.01 | 0.01 | 56 | 1011.5 |
| 20260509214836 | 91 | 289 | 2.6 | 6.1 | 0.00 | 0.01 | 0.01 | 57 | 1011.4 |
| 20260509214306 | 91 | 290 | 2.6 | 6.1 | 0.00 | 0.01 | 0.01 | 58 | 1011.4 |
| 20260509213306 | 90 | 238 | 2.6 | 6.1 | 0.00 | 0.01 | 0.01 | 61 | 1011.3 |
| 20260509212806 | 89 | 202 | 2.6 | 6.1 | 0.01 | 0.01 | 0.01 | 68 | 1011.3 |
| 20260509212236 | 89 | 181 | 2.6 | 6.1 | 0.01 | 0.01 | 0.01 | 69 | 1011.2 |
| 20260509211736 | 88 | 175 | 2.6 | 6.1 | 0.01 | 0.01 | 0.01 | 71 | 1011.1 |
| 20260509211236 | 87 | 180 | 1.7 | 5.2 | 0.01 | 0.01 | 0.01 | 71 | 1011.3 |
| 20260509210707 | 86 | 187 | 1.7 | 4.3 | 0.01 | 0.01 | 0.01 | 75 | 1011.2 |
| 20260509210206 | 86 | 202 | 0.9 | 4.3 | 0.01 | 0.01 | 0.01 | 80 | 1011.2 |
| 20260509205636 | 84 | 239 | 1.7 | 3.5 | 0.01 | 0.01 | 0.01 | 79 | 1011.2 |
| 20260509205136 | 84 | 244 | 1.7 | 3.5 | 0.01 | 0.01 | 0.01 | 78 | 1011.2 |
| 20260509204606 | 83 | 225 | 1.7 | 13.0 | 0.01 | 0.01 | 0.01 | 81 | 1011.2 |
| 20260509203606 | 83 | 245 | 6.1 | 17.4 | 0.01 | 0.01 | 0.01 | 79 | 1011.3 |
| 20260509203036 | 86 | 262 | 5.2 | 17.4 | 0.00 | 0.00 | 0.00 | 68 | 1011.4 |
| 20260509201936 | 92 | 273 | 2.6 | 7.0 | 0.00 | 0.00 | 0.00 | 54 | 1011.2 |
| 20260509201406 | 92 | 265 | 3.5 | 7.0 | 0.00 | 0.00 | 0.00 | 54 | 1011.3 |
| 20260509200836 | 92 | 261 | 3.5 | 7.0 | 0.00 | 0.00 | 0.00 | 55 | 1011.3 |
| 20260509195236 | 93 | 265 | 3.5 | 7.8 | 0.00 | 0.00 | 0.00 | 53 | 1011.5 |
| 20260509194706 | 93 | 263 | 3.5 | 7.8 | 0.00 | 0.00 | 0.00 | 54 | 1011.4 |
| 20260509194136 | 93 | 255 | 3.5 | 7.8 | 0.00 | 0.00 | 0.00 | 53 | 1011.6 |
| 20260509193636 | 93 | 245 | 3.5 | 7.8 | 0.00 | 0.00 | 0.00 | 53 | 1011.6 |
| 20260509193155 | 93 | 249 | 3.5 | 7.8 | 0.00 | 0.00 | 0.00 | 54 | 1011.6 |
| 20260509193106 | 93 | 249 | 3.5 | 7.8 | 0.00 | 0.00 | 0.00 | 54 | 1011.6 |
| 20260509192606 | 93 | 254 | 2.6 | 7.8 | 0.00 | 0.00 | 0.00 | 53 | 1011.7 |
| 20260509192256 | 94 | 222 | 2.6 | 8.7 | 0.00 | 0.00 | 0.00 | 52 | 1011.8 |
| 20260509192106 | 94 | 222 | 2.6 | 8.7 | 0.00 | 0.00 | 0.00 | 52 | 1011.8 |
| 20260509191606 | 94 | 236 | 4.3 | 9.6 | 0.00 | 0.00 | 0.00 | 52 | 1011.8 |
| 20260509191036 | 94 | 249 | 3.5 | 9.6 | 0.00 | 0.00 | 0.00 | 52 | 1011.9 |
| 20260509190536 | 94 | 262 | 2.6 | 7.8 | 0.00 | 0.00 | 0.00 | 52 | 1012.0 |
| 20260509190006 | 94 | 254 | 3.5 | 9.6 | 0.00 | 0.00 | 0.00 | 51 | 1011.9 |
| 20260509185506 | 94 | 243 | 4.3 | 10.4 | 0.00 | 0.00 | 0.00 | 53 | 1012.1 |
| 20260509184936 | 94 | 239 | 3.5 | 10.4 | 0.00 | 0.00 | 0.00 | 52 | 1012.1 |
| 20260509184406 | 94 | 235 | 2.6 | 7.8 | 0.00 | 0.00 | 0.00 | 51 | 1012.1 |
| 20260509183906 | 94 | 240 | 2.6 | 7.8 | 0.00 | 0.00 | 0.00 | 52 | 1012.2 |
| 20260509183406 | 94 | 245 | 3.5 | 11.3 | 0.00 | 0.00 | 0.00 | 52 | 1012.3 |
| 20260509182906 | 94 | 239 | 3.5 | 11.3 | 0.00 | 0.00 | 0.00 | 52 | 1012.3 |
| 20260509182336 | 94 | 233 | 2.6 | 8.7 | 0.00 | 0.00 | 0.00 | 53 | 1012.4 |
| 20260509181836 | 94 | 264 | 3.5 | 8.7 | 0.00 | 0.00 | 0.00 | 52 | 1012.4 |
| 20260509181336 | 94 | 273 | 3.5 | 8.7 | 0.00 | 0.00 | 0.00 | 51 | 1012.5 |
| 20260509180836 | 93 | 258 | 3.5 | 10.4 | 0.00 | 0.00 | 0.00 | 53 | 1012.5 |
| 20260509180336 | 93 | 244 | 3.5 | 10.4 | 0.00 | 0.00 | 0.00 | 51 | 1012.6 |
| 20260509175805 | 93 | 237 | 4.3 | 10.4 | 0.00 | 0.00 | 0.00 | 53 | 1012.4 |
| 20260509175236 | 93 | 238 | 4.3 | 12.2 | 0.00 | 0.00 | 0.00 | 53 | 1012.6 |
| 20260509174706 | 93 | 253 | 3.5 | 12.2 | 0.00 | 0.00 | 0.00 | 52 | 1012.6 |
| 20260509174206 | 93 | 248 | 5.2 | 12.2 | 0.00 | 0.00 | 0.00 | 54 | 1012.7 |
| 20260509173707 | 93 | 249 | 5.2 | 12.2 | 0.00 | 0.00 | 0.00 | 54 | 1012.7 |
| 20260509173135 | 93 | 258 | 4.3 | 9.6 | 0.00 | 0.00 | 0.00 | 53 | 1012.8 |
| 20260509172636 | 93 | 266 | 3.5 | 9.6 | 0.00 | 0.00 | 0.00 | 54 | 1012.7 |
| 20260509172106 | 93 | 260 | 4.3 | 9.6 | 0.00 | 0.00 | 0.00 | 53 | 1012.8 |
| 20260509171605 | 92 | 256 | 5.2 | 9.6 | 0.00 | 0.00 | 0.00 | 53 | 1012.9 |
| 20260509171035 | 93 | 251 | 5.2 | 12.2 | 0.00 | 0.00 | 0.00 | 53 | 1012.9 |
| 20260509165936 | 93 | 242 | 4.3 | 9.6 | 0.00 | 0.00 | 0.00 | 52 | 1012.8 |
| 20260509165436 | 92 | 238 | 4.3 | 9.6 | 0.00 | 0.00 | 0.00 | 54 | 1012.9 |
| 20260509163406 | 92 | 237 | 4.3 | 11.3 | 0.00 | 0.00 | 0.00 | 53 | 1013.0 |
| 20260509162835 | 92 | 238 | 4.3 | 9.6 | 0.00 | 0.00 | 0.00 | 55 | 1013.1 |
| 20260509162336 | 92 | 236 | 4.3 | 14.8 | 0.00 | 0.00 | 0.00 | 55 | 1013.1 |
| 20260509161836 | 91 | 229 | 4.3 | 14.8 | 0.00 | 0.00 | 0.00 | 55 | 1013.1 |
| 20260509161336 | 90 | 227 | 4.3 | 11.3 | 0.00 | 0.00 | 0.00 | 57 | 1013.3 |
| 20260509160806 | 90 | 236 | 4.3 | 11.3 | 0.00 | 0.00 | 0.00 | 56 | 1013.3 |
| 20260509155236 | 90 | 215 | 3.5 | 10.4 | 0.00 | 0.00 | 0.00 | 57 | 1013.3 |
| 20260509154236 | 89 | 233 | 3.5 | 7.8 | 0.00 | 0.00 | 0.00 | 60 | 1013.6 |
| 20260509152706 | 88 | 217 | 2.6 | 7.8 | 0.00 | 0.00 | 0.00 | 63 | 1013.7 |
| 20260509151636 | 88 | 201 | 2.6 | 5.2 | 0.00 | 0.00 | 0.00 | 64 | 1013.9 |
| 20260509151106 | 87 | 197 | 2.6 | 6.1 | 0.00 | 0.00 | 0.00 | 64 | 1014.0 |
| 20260509150605 | 87 | 180 | 2.6 | 7.8 | 0.00 | 0.00 | 0.00 | 65 | 1014.0 |
| 20260509150105 | 87 | 176 | 2.6 | 7.8 | 0.00 | 0.00 | 0.00 | 65 | 1014.1 |
| 20260509145606 | 87 | 184 | 2.6 | 7.0 | 0.00 | 0.00 | 0.00 | 66 | 1014.0 |
| 20260509145035 | 86 | 188 | 2.6 | 7.8 | 0.00 | 0.00 | 0.00 | 67 | 1013.9 |
| 20260509144536 | 86 | 170 | 1.7 | 7.8 | 0.00 | 0.00 | 0.00 | 68 | 1013.9 |
| 20260509144110 | 86 | 103 | 1.7 | 5.2 | 0.00 | 0.00 | 0.00 | 74 | 1014.0 |
| 20260509144005 | 86 | 103 | 1.7 | 5.2 | 0.00 | 0.00 | 0.00 | 74 | 1014.0 |
| 20260509143436 | 85 | 99 | 2.6 | 5.2 | 0.00 | 0.00 | 0.00 | 78 | 1014.0 |
| 20260509142936 | 85 | 93 | 1.7 | 3.5 | 0.00 | 0.00 | 0.00 | 78 | 1014.0 |
| 20260509142406 | 84 | 108 | 1.7 | 3.5 | 0.00 | 0.00 | 0.00 | 80 | 1014.0 |
| 20260509140835 | 82 | 62 | 1.7 | 2.6 | 0.00 | 0.00 | 0.00 | 84 | 1014.1 |
| 20260509140518 | 81 | 66 | 1.7 | 3.5 | 0.00 | 0.00 | 0.00 | 84 | 1014.2 |
| 20260509140336 | 81 | 66 | 1.7 | 3.5 | 0.00 | 0.00 | 0.00 | 84 | 1014.2 |
| 20260509135836 | 81 | 83 | 1.7 | 3.5 | 0.00 | 0.00 | 0.00 | 85 | 1014.3 |
| 20260509134805 | 80 | 88 | 1.7 | 3.5 | 0.00 | 0.00 | 0.00 | 86 | 1014.3 |
| 20260509133236 | 80 | 38 | 1.7 | 3.5 | 0.00 | 0.00 | 0.00 | 87 | 1014.3 |
| 20260509132706 | 80 | 37 | 1.7 | 3.5 | 0.00 | 0.00 | 0.00 | 88 | 1014.2 |
| 20260509132206 | 80 | 61 | 1.7 | 2.6 | 0.00 | 0.00 | 0.00 | 89 | 1014.3 |
| 20260509131706 | 80 | 61 | 1.7 | 2.6 | 0.00 | 0.00 | 0.00 | 89 | 1014.3 |
| 20260509131135 | 80 | 56 | 1.7 | 2.6 | 0.00 | 0.00 | 0.00 | 88 | 1014.2 |
| 20260509130635 | 80 | 71 | 1.7 | 2.6 | 0.00 | 0.00 | 0.00 | 87 | 1014.2 |
| 20260509130135 | 80 | 72 | 0.9 | 2.6 | 0.00 | 0.00 | 0.00 | 86 | 1014.2 |
| 20260509125636 | 80 | 49 | 0.9 | 2.6 | 0.00 | 0.00 | 0.00 | 87 | 1014.0 |
| 20260509125459 | 80 | 54 | 0.9 | 2.6 | 0.00 | 0.00 | 0.00 | 86 | 1014.2 |
| 20260509125135 | 80 | 54 | 0.9 | 2.6 | 0.00 | 0.00 | 0.00 | 86 | 1014.2 |
| 20260509123605 | 78 | 355 | 0.9 | 1.7 | 0.00 | 0.00 | 0.00 | 90 | 1014.0 |
| 20260509122605 | 77 | 49 | 0.0 | 1.7 | 0.00 | 0.00 | 0.00 | 92 | 1014.0 |
| 20260509122035 | 76 | 90 | 0.9 | 1.7 | 0.00 | 0.00 | 0.00 | 93 | 1014.1 |
| 20260509121505 | 76 | 98 | 0.9 | 2.6 | 0.00 | 0.00 | 0.00 | 93 | 1013.9 |
| 20260509121005 | 76 | 105 | 0.9 | 2.6 | 0.00 | 0.00 | 0.00 | 94 | 1013.8 |
| 20260509120436 | 76 | 103 | 1.7 | 3.5 | 0.00 | 0.00 | 0.00 | 95 | 1013.6 |
| 20260509115335 | 76 | 101 | 0.9 | 3.5 | 0.00 | 0.00 | 0.00 | 96 | 1013.6 |
| 20260509114336 | 74 | 106 | 0.9 | 2.6 | 0.00 | 0.00 | 0.00 | 99 | 1013.3 |
| 20260509112805 | 74 | 162 | 0.9 | 3.5 | 0.00 | 0.00 | 0.00 | 99 | 1013.0 |
| 20260509111305 | 73 | 100 | 0.9 | 1.7 | 0.00 | 0.00 | 0.00 | 99 | 1013.1 |
| 20260509110555 | 72 | 104 | 1.7 | 3.5 | 0.00 | 0.00 | 0.00 | 99 | 1013.0 |
| 20260509110235 | 72 | 104 | 1.7 | 3.5 | 0.00 | 0.00 | 0.00 | 99 | 1013.0 |
| 20260509105447 | 72 | 106 | 1.7 | 3.5 | 0.00 | 0.00 | 0.00 | 99 | 1013.0 |
| 20260509105236 | 72 | 106 | 1.7 | 3.5 | 0.00 | 0.00 | 0.00 | 99 | 1013.0 |
| 20260509104235 | 72 | 107 | 0.0 | 2.6 | 0.00 | 0.00 | 0.00 | 99 | 1012.7 |
| 20260509103206 | 72 | 103 | 0.9 | 1.7 | 0.00 | 0.00 | 0.00 | 98 | 1012.7 |
| 20260509101106 | 72 | 316 | 0.0 | 0.9 | 0.00 | 0.00 | 0.00 | 98 | 1012.9 |
| 20260509100606 | 72 | 316 | 0.0 | 0.9 | 0.00 | 0.00 | 0.00 | 97 | 1012.9 |
| 20260509100249 | 72 | 316 | 0.0 | 0.9 | 0.00 | 0.00 | 0.00 | 97 | 1013.0 |
| 20260509100035 | 72 | 316 | 0.0 | 0.9 | 0.00 | 0.00 | 0.00 | 97 | 1013.0 |
| 20260509095505 | 72 | 316 | 0.0 | 0.9 | 0.00 | 0.00 | 0.00 | 97 | 1012.9 |
| 20260509094936 | 73 | 316 | 0.0 | 0.9 | 0.00 | 0.00 | 0.00 | 97 | 1012.8 |
| 20260509093906 | 73 | 316 | 0.0 | 0.9 | 0.00 | 0.00 | 0.00 | 97 | 1013.0 |
| 20260509093813 | 73 | 316 | 0.0 | 0.9 | 0.00 | 0.00 | 0.00 | 96 | 1012.8 |
| 20260509093405 | 73 | 316 | 0.0 | 0.9 | 0.00 | 0.00 | 0.00 | 96 | 1012.8 |
| 20260509092906 | 73 | 316 | 0.0 | 0.9 | 0.00 | 0.00 | 0.00 | 97 | 1012.8 |
| 20260509091235 | 74 | 316 | 0.0 | 0.9 | 0.00 | 0.00 | 0.00 | 96 | 1013.0 |
| 20260509090205 | 74 | 316 | 0.0 | 1.7 | 0.00 | 0.00 | 0.00 | 96 | 1013.0 |
| 20260509085205 | 74 | 316 | 0.9 | 1.7 | 0.00 | 0.00 | 0.00 | 96 | 1012.9 |
| 20260509084705 | 74 | 317 | 0.9 | 1.7 | 0.00 | 0.00 | 0.00 | 96 | 1012.9 |
| 20260509084136 | 74 | 319 | 0.9 | 1.7 | 0.00 | 0.00 | 0.00 | 96 | 1012.9 |
| 20260509083635 | 74 | 318 | 0.9 | 1.7 | 0.00 | 0.00 | 0.00 | 96 | 1013.4 |
| 20260509083136 | 74 | 322 | 0.9 | 1.7 | 0.00 | 0.00 | 0.00 | 96 | 1013.0 |
| 20260509082636 | 74 | 327 | 0.9 | 1.7 | 0.00 | 0.00 | 0.00 | 96 | 1013.1 |
| 20260509082105 | 74 | 329 | 0.9 | 1.7 | 0.00 | 0.00 | 0.00 | 96 | 1013.1 |
| 20260509081605 | 74 | 329 | 0.0 | 0.9 | 0.00 | 0.00 | 0.00 | 96 | 1013.2 |
| 20260509081035 | 74 | 329 | 0.0 | 0.9 | 0.00 | 0.00 | 0.00 | 95 | 1013.1 |
| 20260509075935 | 74 | 329 | 0.0 | 0.9 | 0.00 | 0.00 | 0.00 | 95 | 1013.3 |
| 20260509074906 | 74 | 0 | 0.0 | 0.0 | 0.00 | 0.00 | 0.00 | 95 | 1013.2 |
| 20260509074336 | 74 | 329 | 0.0 | 0.9 | 0.00 | 0.00 | 0.00 | 94 | 1013.4 |
| 20260509073336 | 74 | 339 | 0.0 | 0.9 | 0.00 | 0.00 | 0.00 | 94 | 1013.4 |
| 20260509072306 | 75 | 340 | 0.0 | 0.9 | 0.00 | 0.00 | 0.00 | 93 | 1013.4 |
| 20260509071736 | 75 | 340 | 0.0 | 0.9 | 0.00 | 0.00 | 0.00 | 93 | 1013.5 |
| 20260509071206 | 75 | 340 | 0.0 | 0.9 | 0.00 | 0.00 | 0.00 | 93 | 1013.5 |